Regional Weather Roundup
Issued by NWS Cleveland, OH

Home | Current Version | Previous Version | Graphics & Text | Print | Product List | Glossary On
Versions: 1 2 3 4 5 6 7 8 9 10 11 12 13 14 15 16 17 18 19 20 21 22 23 24 25 26 27 28 29 30 31 32 33 34 35 36 37 38 39 40 41 42 43 44 45 46 47 48 49 50
000
ASUS41 KCLE 191800
RWRCLE
OHIO REGIONAL WEATHER ROUNDUP
NATIONAL WEATHER SERVICE WILMINGTON, OH
100 PM EST SUN NOV 19 2017

NOTE: "FAIR" INDICATES FEW OR NO CLOUDS BELOW 12,000 FEET WITH NO
SIGNIFICANT WEATHER AND/OR OBSTRUCTIONS TO VISIBILITY.

OHZ001>008-015>018-024>027-034-035-043-044-191900-
   NORTHWEST OHIO

CITY           SKY/WX    TMP DP  RH WIND       PRES   REMARKS
DEFIANCE       CLOUDY    36  25  64 W8G21     29.93S
FINDLAY        CLOUDY    38  28  67 W20       29.90S
TOLEDO EXPRESS CLOUDY    38  27  64 W16G30    29.89S
TOLEDO EXEC    CLOUDY    39  26  59 W20G28    29.89R
LIMA           NOT AVBL
$$

OHZ009>014-019>023-028>033-038-089-191900-
   NORTHEAST OHIO

CITY           SKY/WX    TMP DP  RH WIND       PRES   REMARKS
CLE-HOPKINS    FLURRIES  38  30  73 W13       29.85F
CLE-LAKEFRONT  CLOUDY    40  28  62 W25G37    29.81F
CUY CO. ARPT   FLURRIES  39  32  75 W20G35    29.81F
LORAIN-ELYRIA  CLOUDY    38  25  59 W20G28    29.85F
ASHTABULA      LGT SNOW  35  29  78 W7G18     29.78F WCI  29
AKRON-CANTON   FLURRIES  39  26  59 W20G26    29.82S
WOOSTER        MIX PCPN  37  30  75 NW15G24   29.85S
MANSFIELD      CLOUDY    35  31  85 W9G18     29.86S WCI  28
YOUNGSTOWN     CLOUDY    37  30  75 W12       29.79S
$$

OHZ042-051>053-060>062-070>072-077>081-191900-
  SOUTHWEST OHIO

CITY           SKY/WX    TMP DP  RH WIND       PRES   REMARKS
CINC-COVINGTON CLOUDY    37  29  72 W16       30.02F
CINC-LUNKEN    CLOUDY    38  29  70 W17       30.05F
HAMILTON       CLOUDY    37  29  72 W16G24    30.03F
DAYTON         CLOUDY    37  30  75 W21       29.97F
WRIGHT-PAT AFB CLOUDY    38  29  70 W20       29.96F
DAYTON GENERAL CLOUDY    36  28  73 W14G26    29.98F
WILMINGTON     CLOUDY    37  31  78 W17G24    29.97F
$$

OHZ036-037-039>041-045>050-054>059-063>069-073>076-082>088-191900-
  CENTRAL AND SOUTHEAST OHIO

CITY           SKY/WX    TMP DP  RH WIND       PRES   REMARKS
COLUMBUS       LGT RAIN  39  33  79 W22G29    29.92S
OSU AIRPORT    CLOUDY    38  33  82 W21       29.92S
BOLTON FIELD   CLOUDY    37  34  87 S13G23    29.94F
RICKENBACK AFB NOT AVBL
NEWARK         LGT RAIN  41  30  65 W15G21    29.90S
MARION         CLOUDY    38  29  70 W14       29.89F
LANCASTER      CLOUDY    40  31  70 W14G28    29.92F
ZANESVILLE     CLOUDY    40  31  70 W9        29.88F
NEW PHILLY     CLOUDY    40  28  62 W8        29.86F
$$




USA.gov is the U.S. government's official web portal to all federal, state and local government web resources and services.